User: anonymous   Login
Location: Unspecified
(0.0000°N, 0.0000°E)
Time: 05:19:00
(UTC+00:00)
Language:

NNS O-31 - Orbit

View from above orbital plane
View from above orbital plane
View from above satellite
View from above satellite

Ground track
Ground track

The orbit data is extracted from the following two-line orbital elements,

1 19420U 88074B   18343.68627094 +.00000047 +00000-0 +66319-4 0  9994
2 19420 089.9899 018.3603 0093873 342.5030 140.1833 13.42216293483332
Epoch (UTC): 09 December 2018 16:28:13
Eccentricity: 0.0093873
inclination: 89.9899°
perigee height: 1031 km
apogee height: 1171 km
right ascension of ascending node: 18.3603°
argument of perigee: 342.5030°
revolutions per day: 13.42216293
mean anomaly at epoch: 140.1833°
orbit number at epoch: 48333

The dashed part of the orbit path shows where the satellite is in the earth's shadow,  

DLR